Time,TemperatureF,DewpointF,PressureIn,WindDirection,WindDirectionDegrees,WindSpeedMPH,WindSpeedGustMPH,Humidity,HourlyPrecipIn,Conditions,Clouds,dailyrainin,SoftwareType,DateUTC
2013-03-31 00:03:00,28.0,-99.9,30.11,NW,309,0.0,0.0,75,0.00,,,0.00,,2013-03-31 04:03:00,
2013-03-31 00:13:00,28.0,21.0,30.11,NW,309,0.0,0.0,75,0.00,,,0.00,,2013-03-31 04:13:00,
2013-03-31 00:23:00,27.0,21.0,30.11,NW,309,0.0,0.0,77,0.00,,,0.00,,2013-03-31 04:23:00,
2013-03-31 00:33:00,27.0,21.0,30.12,NW,309,0.0,0.0,77,0.00,,,0.00,,2013-03-31 04:33:00,
2013-03-31 00:42:00,27.0,21.0,30.12,NW,309,0.0,0.0,77,0.00,,,0.00,,2013-03-31 04:42:00,
2013-03-31 00:53:00,27.0,21.0,30.13,NW,309,0.0,0.0,79,0.00,,,0.00,,2013-03-31 04:53:00,
2013-03-31 01:02:00,27.0,22.0,30.13,NW,309,0.0,0.0,80,0.00,,,0.00,,2013-03-31 05:02:00,
2013-03-31 01:13:00,27.0,22.0,30.13,NW,309,0.0,0.0,80,0.00,,,0.00,,2013-03-31 05:13:00,
2013-03-31 01:22:00,27.0,21.0,30.13,NW,309,0.0,0.0,79,0.00,,,0.00,,2013-03-31 05:22:00,
2013-03-31 01:32:00,27.0,22.0,30.13,NW,309,0.0,0.0,80,0.00,,,0.00,,2013-03-31 05:32:00,
2013-03-31 01:42:00,27.0,22.0,30.13,NW,309,0.0,0.0,80,0.00,,,0.00,,2013-03-31 05:42:00,
2013-03-31 01:53:00,26.0,21.0,30.13,NW,309,0.0,0.0,81,0.00,,,0.00,,2013-03-31 05:53:00,
2013-03-31 02:02:00,26.0,22.0,30.13,NW,309,0.0,0.0,83,0.00,,,0.00,,2013-03-31 06:02:00,
2013-03-31 02:12:00,26.0,22.0,30.13,NW,309,0.0,0.0,83,0.00,,,0.00,,2013-03-31 06:12:00,
2013-03-31 02:23:00,26.0,21.0,30.12,NW,309,0.0,0.0,81,0.00,,,0.00,,2013-03-31 06:23:00,
2013-03-31 02:32:00,26.0,21.0,30.12,NW,309,0.0,0.0,81,0.00,,,0.00,,2013-03-31 06:32:00,
2013-03-31 02:42:00,26.0,21.0,30.12,NW,309,0.0,0.0,81,0.00,,,0.00,,2013-03-31 06:42:00,
2013-03-31 02:53:00,26.0,21.0,30.12,NW,309,0.0,0.0,81,0.00,,,0.00,,2013-03-31 06:53:00,
2013-03-31 03:02:00,26.0,22.0,30.12,NW,309,0.0,0.0,83,0.00,,,0.00,,2013-03-31 07:02:00,
2013-03-31 03:12:00,26.0,22.0,30.12,NW,309,0.0,0.0,83,0.00,,,0.00,,2013-03-31 07:12:00,
2013-03-31 03:22:00,26.0,21.0,30.12,NW,309,0.0,0.0,82,0.00,,,0.00,,2013-03-31 07:22:00,
2013-03-31 03:33:00,25.0,20.0,30.13,NW,309,0.0,0.0,81,0.00,,,0.00,,2013-03-31 07:33:00,
2013-03-31 03:43:00,25.0,20.0,30.13,NW,309,0.0,0.0,81,0.00,,,0.00,,2013-03-31 07:43:00,
2013-03-31 03:53:00,25.0,20.0,30.12,NW,309,0.0,0.0,81,0.00,,,0.00,,2013-03-31 07:53:00,
2013-03-31 04:02:00,25.0,20.0,30.12,NW,309,0.0,0.0,81,0.00,,,0.00,,2013-03-31 08:02:00,
2013-03-31 04:12:00,25.0,20.0,30.12,NW,309,0.0,0.0,81,0.00,,,0.00,,2013-03-31 08:12:00,
2013-03-31 04:22:00,25.0,21.0,30.12,NW,309,0.0,0.0,84,0.00,,,0.00,,2013-03-31 08:22:00,
2013-03-31 04:32:00,25.0,21.0,30.12,NW,309,0.0,0.0,84,0.00,,,0.00,,2013-03-31 08:32:00,
2013-03-31 04:42:00,25.0,21.0,30.12,NW,309,0.0,0.0,84,0.00,,,0.00,,2013-03-31 08:42:00,
2013-03-31 04:52:00,24.0,20.0,30.12,NW,309,0.0,0.0,85,0.00,,,0.00,,2013-03-31 08:52:00,
2013-03-31 05:02:00,24.0,21.0,30.12,NW,309,0.0,0.0,87,0.00,,,0.00,,2013-03-31 09:02:00,
2013-03-31 05:12:00,24.0,21.0,30.12,NW,309,0.0,0.0,87,0.00,,,0.00,,2013-03-31 09:12:00,
2013-03-31 05:22:00,23.0,19.0,30.13,NW,309,0.0,0.0,86,0.00,,,0.00,,2013-03-31 09:22:00,
2013-03-31 05:33:00,23.0,19.0,30.13,NW,309,0.0,0.0,86,0.00,,,0.00,,2013-03-31 09:33:00,
2013-03-31 05:42:00,23.0,19.0,30.13,NW,309,0.0,0.0,86,0.00,,,0.00,,2013-03-31 09:42:00,
2013-03-31 05:53:00,23.0,20.0,30.13,NW,309,0.0,0.0,88,0.00,,,0.00,,2013-03-31 09:53:00,
2013-03-31 06:03:00,23.0,20.0,30.13,NW,309,0.0,0.0,87,0.00,,,0.00,,2013-03-31 10:03:00,
2013-03-31 06:13:00,23.0,20.0,30.13,NW,309,0.0,0.0,87,0.00,,,0.00,,2013-03-31 10:13:00,
2013-03-31 06:24:00,22.0,19.0,30.13,NW,309,0.0,0.0,88,0.00,,,0.00,,2013-03-31 10:24:00,
2013-03-31 06:33:00,22.0,19.0,30.12,NW,309,0.0,0.0,88,0.00,,,0.00,,2013-03-31 10:33:00,
2013-03-31 06:42:00,22.0,19.0,30.12,NW,309,0.0,0.0,88,0.00,,,0.00,,2013-03-31 10:42:00,
2013-03-31 06:53:00,22.0,19.0,30.12,NW,309,0.0,0.0,89,0.00,,,0.00,,2013-03-31 10:53:00,
2013-03-31 07:02:00,22.0,20.0,30.12,NW,309,0.0,0.0,91,0.00,,,0.00,,2013-03-31 11:02:00,
2013-03-31 07:12:00,22.0,20.0,30.12,NW,309,0.0,0.0,91,0.00,,,0.00,,2013-03-31 11:12:00,
2013-03-31 07:23:00,22.0,20.0,30.13,NW,309,0.0,0.0,91,0.00,,,0.00,,2013-03-31 11:23:00,
2013-03-31 07:32:00,22.0,20.0,30.13,NW,309,0.0,0.0,92,0.00,,,0.00,,2013-03-31 11:32:00,
2013-03-31 07:42:00,22.0,20.0,30.13,NW,309,0.0,0.0,92,0.00,,,0.00,,2013-03-31 11:42:00,
2013-03-31 07:53:00,23.0,21.0,30.13,NW,309,0.0,0.0,92,0.00,,,0.00,,2013-03-31 11:53:00,
2013-03-31 08:03:00,24.0,22.0,30.13,NW,309,0.0,0.0,92,0.00,,,0.00,,2013-03-31 12:03:00,
2013-03-31 08:12:00,24.0,22.0,30.13,NW,309,0.0,0.0,92,0.00,,,0.00,,2013-03-31 12:12:00,
2013-03-31 08:22:00,25.0,23.0,30.13,NW,309,0.0,0.0,92,0.00,,,0.00,,2013-03-31 12:22:00,
2013-03-31 08:33:00,26.0,23.0,30.13,NW,309,0.0,0.0,90,0.00,,,0.00,,2013-03-31 12:33:00,
2013-03-31 08:42:00,26.0,23.0,30.13,NW,309,0.0,0.0,90,0.00,,,0.00,,2013-03-31 12:42:00,
2013-03-31 08:53:00,28.0,25.0,30.12,NW,309,0.0,0.0,87,0.00,,,0.00,,2013-03-31 12:53:00,
2013-03-31 09:02:00,32.0,25.0,30.12,NW,309,0.0,2.0,76,0.00,,,0.00,,2013-03-31 13:02:00,
2013-03-31 09:12:00,32.0,25.0,30.12,NW,309,0.0,2.0,76,0.00,,,0.00,,2013-03-31 13:12:00,
2013-03-31 09:22:00,37.0,27.0,30.11,WNW,293,0.0,2.0,66,0.00,,,0.00,,2013-03-31 13:22:00,
2013-03-31 09:32:00,39.0,26.0,30.11,WNW,291,0.0,2.0,60,0.00,,,0.00,,2013-03-31 13:32:00,
2013-03-31 09:42:00,39.0,26.0,30.11,WNW,291,0.0,2.0,60,0.00,,,0.00,,2013-03-31 13:42:00,
2013-03-31 09:53:00,44.0,22.0,30.11,ENE,78,1.0,3.0,42,0.00,,,0.00,,2013-03-31 13:53:00,
2013-03-31 10:02:00,45.0,22.0,30.11,ESE,111,2.0,4.0,39,0.00,,,0.00,,2013-03-31 14:02:00,
2013-03-31 10:12:00,45.0,22.0,30.11,ESE,111,2.0,4.0,39,0.00,,,0.00,,2013-03-31 14:12:00,
2013-03-31 10:22:00,48.0,22.0,30.11,East,98,1.0,4.0,36,0.00,,,0.00,,2013-03-31 14:22:00,
2013-03-31 10:33:00,49.0,23.0,30.11,WSW,239,1.0,3.0,36,0.00,,,0.00,,2013-03-31 14:33:00,
2013-03-31 10:43:00,49.0,23.0,30.11,WSW,239,1.0,3.0,36,0.00,,,0.00,,2013-03-31 14:43:00,
2013-03-31 10:52:00,51.0,24.0,30.10,WNW,295,1.0,3.0,34,0.00,,,0.00,,2013-03-31 14:52:00,
2013-03-31 11:03:00,52.0,23.0,30.10,ESE,120,1.0,4.0,32,0.00,,,0.00,,2013-03-31 15:03:00,
2013-03-31 11:13:00,52.0,23.0,30.10,ESE,120,1.0,4.0,32,0.00,,,0.00,,2013-03-31 15:13:00,
2013-03-31 11:23:00,54.0,23.0,30.10,SE,136,1.0,5.0,30,0.00,,,0.00,,2013-03-31 15:23:00,
2013-03-31 11:33:00,55.0,25.0,30.10,SSE,148,1.0,4.0,31,0.00,,,0.00,,2013-03-31 15:33:00,
2013-03-31 11:43:00,55.0,25.0,30.10,SSE,148,1.0,4.0,31,0.00,,,0.00,,2013-03-31 15:43:00,
2013-03-31 11:54:00,56.0,24.0,30.09,SE,145,1.0,4.0,29,0.00,,,0.00,,2013-03-31 15:54:00,
2013-03-31 12:03:00,56.0,25.0,30.09,SSE,156,1.0,3.0,30,0.00,,,0.00,,2013-03-31 16:03:00,
2013-03-31 12:13:00,56.0,25.0,30.09,SSE,156,1.0,3.0,30,0.00,,,0.00,,2013-03-31 16:13:00,
2013-03-31 12:23:00,57.0,26.0,30.08,ESE,115,1.0,4.0,30,0.00,,,0.00,,2013-03-31 16:23:00,
2013-03-31 12:33:00,57.0,23.0,30.07,SE,125,2.0,8.0,27,0.00,,,0.00,,2013-03-31 16:33:00,
2013-03-31 12:43:00,57.0,23.0,30.07,SE,125,2.0,8.0,27,0.00,,,0.00,,2013-03-31 16:43:00,
2013-03-31 12:53:00,59.0,25.0,30.06,ESE,106,2.0,5.0,27,0.00,,,0.00,,2013-03-31 16:53:00,
2013-03-31 13:03:00,59.0,25.0,30.06,ESE,119,2.0,6.0,27,0.00,,,0.00,,2013-03-31 17:03:00,
2013-03-31 13:13:00,59.0,25.0,30.06,ESE,119,2.0,6.0,27,0.00,,,0.00,,2013-03-31 17:13:00,
2013-03-31 13:23:00,59.0,25.0,30.04,ESE,119,2.0,9.0,27,0.00,,,0.00,,2013-03-31 17:23:00,
2013-03-31 13:32:00,59.0,25.0,30.03,ESE,121,1.0,6.0,27,0.00,,,0.00,,2013-03-31 17:32:00,
2013-03-31 13:43:00,59.0,25.0,30.03,ESE,121,1.0,6.0,27,0.00,,,0.00,,2013-03-31 17:43:00,
2013-03-31 13:52:00,61.0,27.0,30.02,SE,129,1.0,3.0,27,0.00,,,0.00,,2013-03-31 17:52:00,
2013-03-31 14:03:00,62.0,25.0,30.02,SE,143,1.0,5.0,24,0.00,,,0.00,,2013-03-31 18:03:00,
2013-03-31 14:13:00,62.0,25.0,30.02,SE,143,1.0,5.0,24,0.00,,,0.00,,2013-03-31 18:13:00,
2013-03-31 14:22:00,61.0,22.0,30.01,NNE,32,1.0,7.0,22,0.00,,,0.00,,2013-03-31 18:22:00,
2013-03-31 14:32:00,60.0,23.0,30.00,East,97,1.0,5.0,24,0.00,,,0.00,,2013-03-31 18:32:00,
2013-03-31 14:42:00,60.0,23.0,30.00,East,97,1.0,5.0,24,0.00,,,0.00,,2013-03-31 18:42:00,
2013-03-31 14:53:00,60.0,22.0,29.99,SE,132,2.0,8.0,23,0.00,,,0.00,,2013-03-31 18:53:00,
2013-03-31 15:03:00,60.0,23.0,29.99,SSW,193,2.0,11.0,24,0.00,,,0.00,,2013-03-31 19:03:00,
2013-03-31 15:12:00,60.0,23.0,29.99,SSW,193,2.0,11.0,24,0.00,,,0.00,,2013-03-31 19:12:00,
2013-03-31 15:22:00,60.0,23.0,29.98,East,88,2.0,6.0,24,0.00,,,0.00,,2013-03-31 19:22:00,
2013-03-31 15:33:00,59.0,23.0,29.98,ESE,121,2.0,8.0,25,0.00,,,0.00,,2013-03-31 19:33:00,
2013-03-31 15:43:00,59.0,23.0,29.98,ESE,121,2.0,8.0,25,0.00,,,0.00,,2013-03-31 19:43:00,
2013-03-31 15:54:00,59.0,23.0,29.96,ESE,118,2.0,8.0,25,0.00,,,0.00,,2013-03-31 19:54:00,
2013-03-31 16:03:00,59.0,23.0,29.96,SSW,208,2.0,7.0,25,0.00,,,0.00,,2013-03-31 20:03:00,
2013-03-31 16:13:00,59.0,23.0,29.96,SSW,208,2.0,7.0,25,0.00,,,0.00,,2013-03-31 20:13:00,
2013-03-31 16:23:00,58.0,24.0,29.96,West,266,2.0,6.0,27,0.00,,,0.00,,2013-03-31 20:23:00,
2013-03-31 16:34:00,58.0,25.0,29.96,ESE,116,2.0,8.0,28,0.00,,,0.00,,2013-03-31 20:34:00,
2013-03-31 16:43:00,58.0,25.0,29.96,ESE,116,2.0,8.0,28,0.00,,,0.00,,2013-03-31 20:43:00,
2013-03-31 16:53:00,58.0,25.0,29.95,ESE,122,2.0,9.0,28,0.00,,,0.00,,2013-03-31 20:53:00,
2013-03-31 17:03:00,58.0,26.0,29.95,SE,127,3.0,7.0,29,0.00,,,0.00,,2013-03-31 21:03:00,
2013-03-31 17:13:00,58.0,26.0,29.95,SE,127,3.0,7.0,29,0.00,,,0.00,,2013-03-31 21:13:00,
2013-03-31 17:22:00,58.0,27.0,29.95,SE,138,2.0,6.0,30,0.00,,,0.00,,2013-03-31 21:22:00,
2013-03-31 17:34:00,57.0,25.0,29.94,ESE,110,2.0,9.0,29,0.00,,,0.00,,2013-03-31 21:34:00,
2013-03-31 17:43:00,57.0,25.0,29.94,ESE,110,2.0,9.0,29,0.00,,,0.00,,2013-03-31 21:43:00,
2013-03-31 17:54:00,58.0,25.0,29.94,West,264,3.0,6.0,28,0.00,,,0.00,,2013-03-31 21:54:00,
2013-03-31 18:04:00,57.0,24.0,29.94,SE,127,2.0,8.0,28,0.00,,,0.00,,2013-03-31 22:04:00,
2013-03-31 18:13:00,57.0,24.0,29.94,SE,127,2.0,8.0,28,0.00,,,0.00,,2013-03-31 22:13:00,
2013-03-31 18:24:00,56.0,24.0,29.93,East,98,4.0,9.0,29,0.00,,,0.00,,2013-03-31 22:24:00,
2013-03-31 18:33:00,55.0,24.0,29.94,SE,136,2.0,7.0,30,0.00,,,0.00,,2013-03-31 22:33:00,
2013-03-31 18:43:00,55.0,24.0,29.94,SE,136,2.0,7.0,30,0.00,,,0.00,,2013-03-31 22:43:00,
2013-03-31 18:53:00,53.0,24.0,29.94,ESE,108,2.0,8.0,32,0.00,,,0.00,,2013-03-31 22:53:00,
2013-03-31 19:03:00,53.0,25.0,29.94,ESE,112,3.0,10.0,34,0.00,,,0.00,,2013-03-31 23:03:00,
2013-03-31 19:13:00,53.0,25.0,29.94,ESE,112,3.0,10.0,34,0.00,,,0.00,,2013-03-31 23:13:00,
2013-03-31 19:22:00,52.0,28.0,29.94,South,184,2.0,6.0,40,0.00,,,0.00,,2013-03-31 23:22:00,
2013-03-31 19:33:00,52.0,30.0,29.93,SE,127,1.0,5.0,43,0.00,,,0.00,,2013-03-31 23:33:00,
2013-03-31 19:43:00,52.0,30.0,29.93,SE,127,1.0,5.0,43,0.00,,,0.00,,2013-03-31 23:43:00,
2013-03-31 19:53:00,51.0,31.0,29.94,ESE,118,2.0,6.0,47,0.00,,,0.00,,2013-03-31 23:53:00,
2013-03-31 20:02:00,51.0,32.0,29.94,SE,128,3.0,11.0,48,0.00,,,0.00,,2013-04-01 00:02:00,
2013-03-31 20:13:00,51.0,32.0,29.94,SE,128,3.0,11.0,48,0.00,,,0.00,,2013-04-01 00:13:00,
2013-03-31 20:22:00,50.0,33.0,29.93,ESE,108,0.0,3.0,51,0.00,,,0.00,,2013-04-01 00:22:00,
2013-03-31 20:32:00,50.0,33.0,29.93,SSE,152,1.0,4.0,52,0.00,,,0.00,,2013-04-01 00:32:00,
2013-03-31 20:43:00,50.0,33.0,29.93,SSE,152,1.0,4.0,52,0.00,,,0.00,,2013-04-01 00:43:00,
2013-03-31 20:53:00,50.0,35.0,29.93,South,186,2.0,7.0,56,0.00,,,0.00,,2013-04-01 00:53:00,
2013-03-31 21:03:00,49.0,35.0,29.93,WSW,250,2.0,5.0,59,0.00,,,0.00,,2013-04-01 01:03:00,
2013-03-31 21:13:00,49.0,35.0,29.93,WSW,250,2.0,5.0,59,0.00,,,0.00,,2013-04-01 01:13:00,
2013-03-31 21:23:00,48.0,38.0,29.92,East,101,1.0,6.0,68,0.00,,,0.00,,2013-04-01 01:23:00,
2013-03-31 21:32:00,47.0,38.0,29.92,ESE,103,1.0,4.0,72,0.00,,,0.00,,2013-04-01 01:32:00,
2013-03-31 21:42:00,47.0,38.0,29.92,ESE,103,1.0,4.0,72,0.00,,,0.00,,2013-04-01 01:42:00,
2013-03-31 21:53:00,46.0,39.0,29.90,ESE,114,0.0,3.0,75,0.00,,,0.00,,2013-04-01 01:53:00,
2013-03-31 22:03:00,46.0,39.0,29.89,North,352,0.0,1.0,77,0.00,,,0.00,,2013-04-01 02:03:00,
2013-03-31 22:13:00,46.0,39.0,29.89,North,352,0.0,1.0,77,0.00,,,0.00,,2013-04-01 02:13:00,
2013-03-31 22:23:00,45.0,39.0,29.87,NNW,338,0.0,0.0,80,0.00,,,0.00,,2013-04-01 02:23:00,
2013-03-31 22:33:00,45.0,39.0,29.86,NNW,338,0.0,0.0,80,0.00,,,0.00,,2013-04-01 02:33:00,
2013-03-31 22:42:00,45.0,39.0,29.86,NNW,338,0.0,0.0,80,0.00,,,0.00,,2013-04-01 02:42:00,
2013-03-31 22:53:00,45.0,40.0,29.85,WNW,298,0.0,1.0,82,0.00,,,0.00,,2013-04-01 02:53:00,
2013-03-31 23:03:00,45.0,40.0,29.84,WNW,298,0.0,1.0,81,0.00,,,0.00,,2013-04-01 03:03:00,
2013-03-31 23:12:00,45.0,40.0,29.84,WNW,298,0.0,1.0,81,0.00,,,0.00,,2013-04-01 03:12:00,
2013-03-31 23:23:00,45.0,39.0,29.82,West,262,0.0,2.0,78,0.00,,,0.00,,2013-04-01 03:23:00,
2013-03-31 23:34:00,45.0,38.0,29.82,WNW,302,1.0,3.0,77,0.00,,,0.00,,2013-04-01 03:34:00,
2013-03-31 23:43:00,45.0,38.0,29.82,WNW,302,1.0,3.0,77,0.00,,,0.00,,2013-04-01 03:43:00,
2013-03-31 23:53:00,44.0,39.0,29.80,WNW,286,0.0,4.0,84,0.02,,,0.02,,2013-04-01 03:53:00,